STARLINK-1449, 45666

Orbit data source: Space-Track

STARLINK-1449, 45666 is a payload satellite owned by SpaceX/Seattle (US) in LEO that was launched on Thu, 04 Jun 2020 UTC via an FALCON 9 launch vehicle from the Air Force Eastern Test Range (AFETR). Payloads include a variety of satellites, spacecraft, and rockets equipped with specific instruments for various scientific and technological missions. These include communications satellites like Starlink; space stations such as the ISS; scientific satellites like the Hubble; Earth observation satellites from companies like Planet Labs, Umbra, and HawkEye 360; GPS; miniature CubeSats for education and research; and military/defense satellites.

Loading next visibility...
STARLINK-1449 details
Identifier
45666, 2020-035K
Orbit
LEO
Last TLE update1 day ago
Origin
Flag of USSpaceX/Seattle (US)
ManufacturerSpaceX/Seattle
MissionPartially operational Commercial Communications
Bus & MotorSTARLINK, Unknown motor
Mass260 kg wet, ~248 kg dry
Launch date (UTC)
2020-06-04 (5 years ago)
Launch vehicle
FALCON 9
Launch site
Air Force Eastern Test Range (AFETR)
Object type
Payload
Rocket body
Debris
Shape & HBRBox + 1 Pan, 8.86 m
Radar Cross Section13.562 m², Large (>1 m²)

Expand to show TLE details & history

TLE from 1 day ago
0 STARLINK-1449
1 45666U 20035K   24348.03344525  .00070139  00000-0  14944-2 0  9998
2 45666  53.0383 255.0456 0006747  54.8776 305.2861 15.44289168250807
Epoch: 2024-12-13T00:48Z
Definitive object data (Epoch: 2024-12-13T00:48:09.669Z)
Latitude-0.00001°
Longitude160.80007°
Altitude431.707 km
Speed7.655 km/s
True Right ascension17h 00m 10s
True Declination0° 00' 00"
Sunlit
Object was in daylight at TLE epoch
Visualization TLE readout
Latitude-50.39208°
Longitude40.07818°
Altitude454.787 km
Speed7.637 km/s
Apparent Right ascension12h 06m 59s
Apparent Declination-54° 28' 04"
Sunlit
Object is in daylight
Visualization observer readout
Local Sidereal Time02:50:58
Azimuth131.952° SE
Elevation-59.159°
Doppler factor1
Orbital elements
Apogee altitude438.341 km
Perigee altitude429.149 km
Semi-major axis6,811.882 km
Eccentricity0.0006747
Inclination53.0383°
RAAN255.0456°
Arg. of periapsis54.8776°
True anomaly305.22296°
Mean anomaly305.2861°
Eccentric anomaly305.25453°
Mean motion3.86049 °/min
BSTAR0.0014944
Orbital period93.25 mins
Loading maneuver chart data...

STARLINK-1449 Visibility forecast

Observer location: undefined°, undefined

Span
Click to sort rows by Start time (UTC) header in descending order
Start Az.
Max El. time (UTC)
Max El. Az.
Max El.
End time (UTC)
End Az.
6 mins2024-12-14 20:28:06.533Z233.347° WSW2024-12-14 20:31:06.533Z267.973° W43.659°2024-12-14 20:34:06.533Z47.381° ENE
4 mins2024-12-15 03:01:06.533Z315.943° NNW2024-12-15 03:02:06.533Z329.965° NNW41.635°2024-12-15 03:05:06.533Z125.855° SE
|